Flag for U.S.A. Weather past 2 weeks in El Paso, Texas, U.S.A.

Now
75 °F

Thunderstorms. Mostly cloudy.


Feels Like: 78 °F
Forecast: 76 / 96 °F
Wind: 15 mph from Northeast

Location: El Paso International Airport

Current Time: Jun 30, 2015 at 12:13:45 AM

Latest Report: Jun 29, 2015 at 11:58 PM


Visibility: 7 mi

Pressure: 30.14 "Hg

Humidity: 55%

Dew point: 58 °F

Location of El PasoLocation

Historic Weather in El Paso — Graph

°F

El Paso temperature yesterday

Maximum temperature yesterday: 98 °F (at 2:51 PM)
Minimum temperature yesterday: 73 °F (at 6:51 AM)
Average temperature yesterday: 86 °F

Past Weeks' High & Low Weather Summary

 TemperatureHumidityPressure
High103 °F (Jun 20, 4:51 PM)68% (Jun 16, 6:51 AM)29.99 "Hg (Jun 16, 6:51 AM)
Low70 °F (Jun 16, 5:51 AM)11% (Jun 20, 4:51 PM)29.62 "Hg (Jun 20, 5:51 PM)
Average85 °F35%29.82 "Hg
* Reported Jun 14 10:51 PM — Jun 29 10:51 PM, El Paso, Weather by CustomWeather, © 2015

Note: Actual official high and low records may vary slightly from our data, if they occured in-between our weather recording intervals... More about our weather records

Advertising

El Paso weather history for previous 24 hours

 ConditionsComfort  
Time TempWeatherWind HumidityBarometerVisibility
10:51 PM
Mon, Jun 29
85 °FPassing clouds.23 mph32%29.83 "Hg10 mi
9:51 PM86 °FPassing clouds.6 mph27%29.79 "Hg10 mi
8:51 PM90 °FScattered clouds.9 mph24%29.76 "Hg10 mi
7:51 PM92 °FPartly sunny.10 mph22%29.74 "Hg10 mi
6:51 PM93 °FPartly sunny.9 mph20%29.73 "Hg10 mi
5:51 PM94 °FPartly sunny.6 mph20%29.74 "Hg10 mi
4:51 PM94 °FLight rain. Partly sunny.6 mph20%29.75 "Hg10 mi
3:51 PM97 °FPartly sunny.7 mph17%29.77 "Hg10 mi
2:51 PM98 °FScattered clouds.9 mph17%29.79 "Hg10 mi
1:51 PM95 °FScattered clouds.9 mph19%29.82 "Hg10 mi
12:51 PM92 °FScattered clouds.6 mph21%29.85 "Hg10 mi
11:51 AM90 °FPassing clouds.5 mph24%29.87 "Hg10 mi
10:51 AM87 °FPassing clouds.3 mph26%29.88 "Hg10 mi
9:51 AM82 °FScattered clouds.3 mph32%29.89 "Hg10 mi
8:51 AM80 °FScattered clouds.3 mph31%29.89 "Hg10 mi
7:51 AM78 °FScattered clouds.3 mph33%29.88 "Hg10 mi
6:51 AM73 °FPassing clouds.3 mph40%29.88 "Hg10 mi
5:51 AM75 °FPassing clouds.No wind36%29.85 "Hg10 mi
4:51 AM75 °FPassing clouds.No wind36%29.85 "Hg10 mi
3:51 AM76 °FPassing clouds.No wind32%29.85 "Hg10 mi
2:51 AM78 °FPassing clouds.No wind30%29.85 "Hg10 mi
1:51 AM78 °FPassing clouds.6 mph29%29.86 "Hg10 mi
12:51 AM80 °FPassing clouds.10 mph26%29.86 "Hg10 mi
Weather by CustomWeather, © 2015

See weather overviewHow to use our weather pages